Location: Barrio Las Umbrías
(40.4173°N, 4.8685°W)
Time: 12:17:58
(UTC+00:00)

Cosmos 1844 Rocket - Pass Details

Date: 17 August 2022
Orbit: 823 x 845 km, 71.0° (Epoch: 27 September)

Event Time Altitude Azimuth Distance (km) Brightness Sun altitude
Rises 20:10:53 0° 195° (SSW) 3,342 5.7 -10.7°
Reaches altitude 10° 20:13:18 10° 193° (SSW) 2,413 4.9 -11.2°
Maximum altitude 20:18:47 70° 110° (ESE) 876 2.6 -12.1°
Drops below altitude 10° 20:24:20 10° 28° (NNE) 2,434 5.1 -13.0°
Sets 20:26:47 0° 26° (NNE) 3,373 5.9 -13.4°
